Location: Newark
(44.3248°N, 23.7839°E)
Time: 14:37:45
(UTC+00:00)

FO-29 - Pass Details

Date: 30 April 2024
Orbit: 801 x 1320 km, 98.6° (Epoch: 19 May)

Event Time Altitude Azimuth Distance (km) Brightness Sun altitude
Rises 23:13:30 0° 20° (NNE) 4,286 14.1 -29.4°
Reaches altitude 10° 23:16:31 10° 29° (NNE) 3,340 13.2 -29.2°
Maximum altitude 23:23:34 35° 93° (E) 1,997 11.1 -28.9°
Enters shadow 23:26:30 27° 131° (SE) 2,279 11.2 -28.7°
